[[{"header":{"parameterUnit":"m.s-1","parameterCategory":1,"la1":30.2991,"la2":30.254,"lo1":-89.0895,"lo2":-89.0444,"dy":0.0017,"dx":0.0017,"nx":28,"ny":28,"refTime":"2023-04-01T21:00:00:Z","depth":0,"parameterNumber":2,"parameterNumberName":"U-component_of_WINDS"},"data":[0,0,0,0,0,0,0,0,0,0,0,0,0,0,0,0,0,0,0,0,0,0,0,0,0,0,0,0,0,0,0,0,0,0,0,0,0,0,0,0,0,0,0,0,0,0,0,0,0,0,0,0,0,0,0,0,0,0,-4.1966,-4.1965,0,-4.1874,-4.1873,-4.1872,-4.1695,-4.1691,-4.1688,-4.1684,-4.1594,-4.1595,-4.1596,0,0,0,0,0,0,0,0,0,0,0,0,0,-4.1993,-4.1993,-4.1966,-4.1965,-4.1963,-4.1874,-4.1873,-4.1872,-4.1695,-4.1691,-4.1687,-4.1683,-4.1594,-4.1595,-4.1596,0,0,0,0,0,0,0,0,0,0,0,0,0,-4.1949,-4.1993,-4.1966,-4.1864,-4.1854,-4.1875,-4.1873,-4.1871,-4.1696,-4.1691,-4.1686,-4.1681,-4.1594,-4.1595,-4.1596,-4.1709,0,0,-4.16,-4.1601,0,0,0,0,0,0,0,0,-4.1952,-4.1949,-4.1881,-4.1871,-4.186,-4.179,-4.1849,-4.1817,-4.1697,-4.1756,-4.1684,-4.1678,-4.1664,-4.1659,-4.1653,-4.1704,-4.17,-4.16,-4.1601,-4.1601,-4.1602,0,0,0,0,0,0,0,-4.1955,-4.1952,-4.1929,-4.188,-4.1867,-4.1825,-4.1813,-4.1842,-4.1741,-4.1751,-4.1738,-4.1729,-4.1657,-4.1653,-4.165,-4.1699,-4.16,-4.1601,-4.1602,-4.1602,-4.1841,-4.1847,0,0,0,0,0,0,-4.1973,-4.1955,-4.1932,-4.1927,-4.1894,-4.1829,-4.1816,-4.1818,-4.174,-4.1723,-4.1734,-4.1721,-4.1653,-4.1649,-4.1646,-4.1774,-4.1601,-4.1603,-4.1603,-4.1836,-4.1842,-4.1849,0,0,0,0,0,0,-4.1974,-4.1972,-4.1936,-4.1937,-4.193,-4.1834,-4.1838,-4.1819,-4.1814,-4.1727,-4.1708,-4.1747,-4.1649,-4.1644,-4.1695,-4.1769,-4.1603,-4.1604,-4.1829,-4.1838,-4.1846,-4.2031,0,0,0,0,0,0,-4.1975,-4.1974,-4.2014,-4.194,-4.193,-4.1985,-4.1843,-4.1821,-4.1816,-4.1799,-4.1735,-4.1719,-4.1644,-4.1694,-4.1696,-4.1767,-4.1605,-4.1822,-4.1833,-4.1843,-4.2018,-4.2045,-4.2068,0,0,0,0,0,-4.1977,-4.207,-4.2017,-4.2015,-4.1978,-4.1989,-4.1984,-4.1895,-4.1823,-4.1864,-4.1808,-4.1721,-4.1761,-4.1701,-4.1702,-4.1775,-4.1817,-4.183,-4.1842,-4.2007,-4.204,-4.2067,0,0,0,0,0,0,-4.2155,-4.2058,-4.1998,-4.2069,-4.2039,-4.1959,-4.2007,-4.1933,-4.1923,-4.1907,-4.1799,-4.1786,-4.1852,-4.1818,-4.1753,-4.1881,-4.1775,-4.1789,-4.19,-4.1931,-4.1955,-4.1962,-4.1606,0,0,0,0,0,-4.2203,-4.2219,-4.2133,-4.2205,-4.2193,-4.2104,-4.2105,-4.204,-4.2004,-4.1991,-4.1939,-4.1909,-4.1915,-4.1921,-4.1921,-4.2013,-4.1998,-4.2064,-4.2089,-4.211,-4.2122,-4.2171,-4.22,-4.189,-4.189,-4.1889,0,0,-4.2301,-4.225,-4.2267,-4.2239,-4.2208,-4.2229,-4.2094,-4.2121,-4.2136,-4.1995,-4.2039,-4.2001,-4.1961,-4.2034,-4.2063,-4.2007,-4.2205,-4.2126,-4.2143,-4.2144,-4.2187,-4.2217,-4.2243,-4.1898,-4.1897,-4.1895,0,0,-4.2491,-4.2453,-4.2509,-4.2482,-4.2436,-4.2377,-4.2392,-4.2324,-4.2293,-4.2336,-4.2232,-4.2249,-4.2261,-4.2237,-4.2227,-4.2413,-4.2334,-4.2417,-4.2547,-4.2595,-4.262,-4.2641,-4.2709,-4.2735,-4.243,-4.243,-4.2431,0,-4.2619,-4.2644,-4.2548,-4.2583,-4.2575,-4.2449,-4.2507,-4.2485,-4.2443,-4.2442,-4.238,-4.2394,-4.2358,-4.2425,-4.2471,-4.2466,-4.248,-4.2423,-4.2624,-4.2644,-4.2663,-4.2726,-4.2752,-4.2441,-4.244,-4.2438,-4.2437,0,-4.2805,-4.2825,-4.2877,-4.2839,-4.2837,-4.2884,-4.2796,-4.2807,-4.2743,-4.2692,-4.2739,-4.2692,-4.2682,-4.2693,-4.2631,-4.2752,-4.272,-4.2643,-4.2534,-4.2704,-4.2763,-4.2786,-4.2456,-4.2452,-4.2449,-4.2446,0,0,-4.3101,-4.3013,-4.3033,-4.3016,-4.2959,-4.2973,-4.3016,-4.3006,-4.3018,-4.2994,-4.3028,-4.3043,-4.2973,-4.2962,-4.2896,-4.2939,-4.3093,-4.2857,-4.2855,-4.2904,-4.3226,-4.3284,-4.3314,-4.304,-4.3044,-4.3048,-4.323,0,-4.3279,-4.3343,-4.326,-4.3345,-4.3364,-4.3247,-4.3284,-4.3255,-4.3209,-4.322,-4.3169,-4.3182,-4.3087,-4.308,-4.3118,-4.3066,-4.3156,-4.3052,-4.3072,-4.3074,-4.3086,-4.3344,-4.3404,-4.3578,-4.3252,-4.3256,-4.3258,0,-4.3492,-4.348,-4.3567,-4.3507,-4.3512,-4.3547,-4.3533,-4.3544,-4.351,-4.3474,-4.3464,-4.3386,-4.3426,-4.3322,-4.3377,-4.3308,-4.3312,-4.3289,-4.3293,-4.3291,-4.3176,-4.335,-4.3631,-4.3658,-4.3293,-4.329,-4.3288,0,-4.3702,-4.3707,-4.3759,-4.3748,-4.368,-4.3708,-4.3681,-4.3641,-4.3642,-4.3631,-4.363,-4.3625,-4.3622,-4.362,-4.3544,-4.3475,-4.361,-4.3498,-4.3583,-4.3585,-4.3615,-4.3614,-4.3902,-4.3619,-4.3618,-4.3618,-4.3617,0,-4.3908,-4.3965,-4.3853,-4.3885,-4.3948,-4.3853,-4.3919,-4.388,-4.3847,-4.3872,-4.3771,-4.3797,-4.3695,-4.3711,-4.3653,-4.3709,-4.3708,-4.3681,-4.3665,-4.369,-4.3694,-4.3691,-4.3677,-4.3624,-4.3623,-4.3622,-4.362,0,-4.415,-4.4077,-4.4127,-4.406,-4.4044,-4.4094,-4.4037,-4.4066,-4.4015,-4.4048,-4.405,-4.3971,-4.3985,-4.391,-4.391,-4.3871,-4.3956,-4.3919,-4.3968,-4.3956,-4.4045,-4.4038,-4.4341,-4.4377,-4.4071,-4.4074,-4.4076,0,-4.4286,-4.4328,-4.4266,-4.4275,-4.4254,-4.427,-4.4271,-4.4181,-4.4186,-4.4153,-4.4187,-4.4193,-4.4192,-4.4221,-4.4164,-4.4165,-4.4128,-4.4234,-4.4127,-4.4152,-4.4131,-4.4129,-4.4134,-4.4256,-4.426,-4.4263,-4.4266,0,-4.4536,-4.4498,-4.4502,-4.4496,-4.4499,-4.4489,-4.4473,-4.4487,-4.439,-4.4402,-4.4415,-4.4415,-4.4417,-4.4425,-4.4415,-4.4389,-4.4313,-4.43,-4.432,-4.4346,-4.4372,-4.436,-4.4029,-4.4293,-4.429,-4.4288,-4.4287,-4.4286,-4.4729,-4.4762,-4.4724,-4.4733,-4.4712,-4.4701,-4.4725,-4.4678,-4.4687,-4.4681,-4.4629,-4.4653,-4.4622,-4.46,-4.4583,-4.4602,-4.4552,-4.458,-4.4587,-4.4595,-4.4612,-4.4371,-4.46,-4.4599,-4.4598,-4.4598,-4.4597,0,-4.4974,-4.4945,-4.4954,-4.4935,-4.4944,-4.4871,-4.4851,-4.4863,-4.4885,-4.4862,-4.4865,-4.4882,-4.4891,-4.4837,-4.4838,-4.4865,-4.483,-4.4868,-4.4865,-4.4861,-4.4656,-4.4639,-4.4896,-4.4896,-4.4896,-4.4896,-4.4896,-4.4896,-4.5102,-4.5155,-4.5114,-4.5157,-4.5127,-4.515,-4.5145,-4.5135,-4.5116,-4.514,-4.5146,-4.5111,-4.5077,-4.5076,-4.5082,-4.5066,-4.5072,-4.5122,-4.5095,-4.4904,-4.4875,-4.4847,-4.4831,-4.5124,-4.5125,-4.5298,-4.53,-4.5301]},{"header":{"parameterUnit":"m.s-1","parameterCategory":1,"la1":30.2991,"la2":30.254,"lo1":-89.0895,"lo2":-89.0444,"dy":0.0017,"dx":0.0017,"nx":28,"ny":28,"refTime":"2023-04-01T21:00:00:Z","depth":0,"parameterNumber":3,"parameterNumberName":"V-component_of_WINDS"},"data":[0,0,0,0,0,0,0,0,0,0,0,0,0,0,0,0,0,0,0,0,0,0,0,0,0,0,0,0,0,0,0,0,0,0,0,0,0,0,0,0,0,0,0,0,0,0,0,0,0,0,0,0,0,0,0,0,0,0,0.7962,0.7961,0,0.791,0.791,0.7909,0.7922,0.7923,0.7924,0.7925,0.7866,0.7864,0.7861,0,0,0,0,0,0,0,0,0,0,0,0,0,0.8066,0.8064,0.7962,0.7961,0.796,0.791,0.791,0.7909,0.7922,0.7923,0.7924,0.7926,0.7867,0.7864,0.7861,0,0,0,0,0,0,0,0,0,0,0,0,0,0.8018,0.8064,0.7962,0.7961,0.796,0.791,0.791,0.7909,0.7922,0.7923,0.7925,0.7926,0.7868,0.7864,0.7861,0.7806,0,0,0.7849,0.7847,0,0,0,0,0,0,0,0,0.8021,0.8014,0.7962,0.7961,0.796,0.7924,0.7925,0.7874,0.7921,0.7936,0.7925,0.7927,0.7884,0.7879,0.7866,0.7804,0.7801,0.7849,0.7846,0.7845,0.7844,0,0,0,0,0,0,0,0.8024,0.8017,0.7941,0.7961,0.796,0.7962,0.7957,0.7915,0.7902,0.7935,0.7936,0.793,0.7884,0.7869,0.7864,0.78,0.7849,0.7846,0.7843,0.7842,0.7691,0.769,0,0,0,0,0,0,0.8029,0.8019,0.7943,0.794,0.7995,0.7959,0.7953,0.7934,0.7902,0.7899,0.7929,0.7931,0.7875,0.7869,0.7862,0.7796,0.7845,0.7841,0.7839,0.7693,0.7691,0.7689,0,0,0,0,0,0,0.8031,0.8022,0.7945,0.798,0.797,0.7955,0.7934,0.7932,0.7918,0.7898,0.7895,0.7917,0.7876,0.7868,0.7821,0.7795,0.784,0.7836,0.7695,0.7692,0.769,0.7664,0,0,0,0,0,0,0.8034,0.8023,0.8003,0.7979,0.7968,0.7905,0.7932,0.793,0.7912,0.7914,0.7886,0.7882,0.7877,0.7826,0.7817,0.779,0.7833,0.7697,0.7694,0.7691,0.7667,0.7661,0.7656,0,0,0,0,0,0.8038,0.7996,0.8002,0.7993,0.7943,0.7904,0.7897,0.7893,0.791,0.7889,0.7876,0.7883,0.78,0.7821,0.7811,0.7783,0.7699,0.7695,0.7691,0.767,0.7662,0.7656,0,0,0,0,0,0,0.8015,0.7993,0.7999,0.7949,0.7929,0.7906,0.788,0.7885,0.7858,0.7861,0.7855,0.7849,0.7801,0.7787,0.7812,0.7729,0.7751,0.7745,0.7739,0.7731,0.7726,0.7729,0.783,0,0,0,0,0,0.8005,0.7976,0.7958,0.7915,0.7905,0.7894,0.7877,0.7876,0.7854,0.7844,0.7828,0.7804,0.7773,0.7752,0.7721,0.7666,0.7659,0.7642,0.7636,0.7631,0.7625,0.7595,0.7586,0.7676,0.7676,0.7676,0,0,0.7981,0.7966,0.7948,0.7911,0.7894,0.7863,0.7887,0.7853,0.7829,0.7838,0.7793,0.7781,0.7754,0.7703,0.7679,0.769,0.76,0.7626,0.7623,0.7619,0.759,0.7581,0.7574,0.7674,0.7674,0.7674,0,0,0.7924,0.791,0.7873,0.7858,0.7834,0.7827,0.7819,0.7796,0.7788,0.7744,0.775,0.7722,0.7667,0.7648,0.7631,0.7568,0.7573,0.7559,0.7528,0.7498,0.7491,0.7484,0.7461,0.7452,0.7553,0.7553,0.7553,0,0.7897,0.7853,0.7853,0.7819,0.7802,0.7812,0.7774,0.7758,0.7724,0.7712,0.7725,0.7658,0.764,0.7585,0.757,0.7556,0.7545,0.7561,0.7492,0.7486,0.748,0.7457,0.7448,0.7551,0.7552,0.7552,0.7552,0,0.7821,0.779,0.7763,0.7734,0.7714,0.7678,0.7671,0.765,0.7652,0.7644,0.7598,0.7578,0.7544,0.7531,0.7531,0.7475,0.7482,0.7494,0.7516,0.747,0.7448,0.7439,0.7549,0.755,0.755,0.7551,0,0,0.7745,0.7718,0.7708,0.7695,0.7671,0.7645,0.761,0.7579,0.7561,0.7538,0.7507,0.7462,0.7473,0.7454,0.7452,0.7426,0.7377,0.7441,0.744,0.7429,0.7313,0.7303,0.7293,0.7381,0.7379,0.7378,0.7315,0,0.7684,0.7624,0.7624,0.7567,0.7537,0.7548,0.7516,0.7497,0.7489,0.7462,0.7452,0.742,0.7437,0.7426,0.7401,0.7388,0.7353,0.7393,0.735,0.7348,0.7354,0.7282,0.7271,0.7212,0.7306,0.7305,0.7304,0,0.7605,0.7582,0.7523,0.7504,0.7491,0.7464,0.7436,0.741,0.7388,0.7384,0.7364,0.7366,0.7329,0.7354,0.7301,0.7328,0.7311,0.7302,0.7299,0.7293,0.7322,0.7272,0.7193,0.7184,0.7291,0.7292,0.7293,0,0.7553,0.7508,0.7467,0.7456,0.7432,0.7413,0.7402,0.7382,0.7364,0.7339,0.7327,0.7297,0.728,0.7256,0.725,0.7269,0.7196,0.7222,0.719,0.719,0.7172,0.7173,0.7087,0.7164,0.7164,0.7164,0.7165,0,0.7484,0.7447,0.7444,0.7418,0.7377,0.7377,0.7336,0.7326,0.7309,0.728,0.7287,0.726,0.7255,0.7226,0.7221,0.7177,0.7169,0.7163,0.7162,0.7162,0.7162,0.7148,0.7152,0.7162,0.7162,0.7163,0.7163,0,0.7419,0.7416,0.7371,0.7354,0.7349,0.7319,0.7304,0.7278,0.7272,0.7236,0.7228,0.7216,0.7183,0.7176,0.7135,0.7132,0.7079,0.7083,0.7087,0.7087,0.7055,0.7057,0.6956,0.6942,0.7029,0.7029,0.7028,0,0.7374,0.7347,0.7328,0.731,0.7299,0.7271,0.7253,0.7252,0.7233,0.7207,0.7185,0.7153,0.7127,0.7073,0.706,0.7029,0.703,0.6997,0.7026,0.7026,0.7028,0.7029,0.7026,0.6991,0.699,0.6989,0.6989,0,0.7295,0.7295,0.727,0.7245,0.7224,0.7204,0.7184,0.7169,0.7166,0.7143,0.7111,0.7091,0.7051,0.7019,0.6988,0.6975,0.698,0.698,0.6971,0.6969,0.6973,0.6969,0.707,0.6982,0.6983,0.6983,0.6983,0.6984,0.7237,0.7213,0.7197,0.7169,0.7155,0.7137,0.7113,0.7104,0.7078,0.7047,0.7048,0.7012,0.6991,0.6951,0.6936,0.6906,0.6916,0.6903,0.69,0.6896,0.6893,0.6979,0.6901,0.6901,0.6901,0.6901,0.6902,0,0.7157,0.7148,0.7123,0.7096,0.7074,0.7085,0.7064,0.7044,0.7013,0.6995,0.697,0.6932,0.6901,0.6887,0.6856,0.6835,0.6836,0.6826,0.6827,0.6823,0.6886,0.6897,0.6825,0.6825,0.6825,0.6826,0.6826,0.6826,0.7113,0.7073,0.7071,0.7024,0.7014,0.6981,0.6968,0.6951,0.6936,0.6894,0.6869,0.6862,0.6844,0.6812,0.6784,0.678,0.6767,0.6756,0.6753,0.6811,0.6819,0.6826,0.6836,0.6753,0.6753,0.6693,0.6692,0.6692]}]]